{"data":{"norad_id":54151,"epoch":"2026-05-25T03:11:54.109824Z","epoch_age_seconds":77631,"freshness":"FRESH","line1":"1 54151U 22139B   26145.13326516  .00000030  00000+0  14390-3 0  9990","line2":"2 54151  82.4999   1.6992 0015815 283.9866  75.9455 12.42890354162785","mean_motion":12.42890354,"eccentricity":0.0015815,"inclination_deg":82.4999,"raan_deg":1.6992,"arg_perigee_deg":283.9866,"mean_anomaly_deg":75.9455,"bstar":0.0001439,"rev_number":16278,"period_min":115.85897302732,"perigee_km":1481.9239892748,"apogee_km":1506.8247427255,"semimajor_km":7872.5113660002,"source":"CELESTRAK","updated_at":"2026-05-25T13:37:58.618463Z"}}